Location: Borz?cin
(51.1714°N, 19.6030°E)
Time: 21:56:59
(UTC+00:00)

GEOS 3 Rocket - Pass Details

Date: 19 May 2025
Orbit: 782 x 831 km, 115.0° (Epoch: 16 June)

Event Time Altitude Azimuth Distance (km) Brightness Sun altitude
Exits shadow 23:21:50 16° 138° (SE) 1,978 5.3 -18.2°
Maximum altitude 23:26:01 86° 226° (SW) 799 3.5 -18.1°
Drops below altitude 10° 23:31:11 10° 317° (NW) 2,378 6.5 -17.9°
Sets 23:33:30 0° 317° (NW) 3,319 7.3 -17.8°
